This demonstration page uses our WeatherBlox Daily Observations layout. Learn more.

Left ArrowRight Arrow

34.16533, -84.80231

Hourly Observations for April 14, 2016

Temp ( °F °C ) Dew Point ( °F °C ) Humidity (%) Winds ( mph kmh ) Pressure ( in mb ) Visibility ( mi km ) Precip ( " mm )
12:53 am 00:53 Cloudy 59 15 53 11.7 81 81 Calm 30.12 1020 10 16 0.00 0.00
1:53 am 01:53 Cloudy 56 13.3 55 12.8 97 97 Calm 30.13 1020 8 13 0.06 1.52
2:53 am 02:53 Cloudy with Rain 56 13.3 55 12.8 97 97 Calm 30.12 1020 5 8 0.05 1.27
3:53 am 03:53 Cloudy 56 13.3 55 12.8 97 97 NE 5 7 30.12 1020 8 13 0.04 1.02
4:53 am 04:53 Cloudy 56 13.3 55 12.8 97 97 ENE 3 6 30.11 1020 8 13 0.00 0.03
5:53 am 05:53 Cloudy 56 13.3 54 12.2 93 93 E 3 6 30.11 1020 10 16 0.01 0.25
6:53 am 06:53 Cloudy 55 12.8 53 11.7 93 93 E 3 6 30.13 1020 10 16 0.00 0.00
7:53 am 07:53 Cloudy 55 12.8 53 11.7 93 93 ENE 3 6 30.14 1021 10 16 0.00 0.00
8:53 am 08:53 Cloudy 55 12.8 53 11.7 93 93 E 5 7 30.14 1021 10 16 0.00 0.00
9:53 am 09:53 Cloudy 57 13.9 52 11.1 83 83 VRB 5 7 30.14 1021 10 16 0.00 0.00
10:53 am 10:53 Mostly Cloudy 60 15.6 51 10.6 72 72 ESE 9 15 30.15 1021 10 16 0.00 0.00
11:53 am 11:53 Cloudy 62 16.7 51 10.6 67 67 E 9 15 30.14 1021 10 16 0.00 0.00
12:53 pm 12:53 Cloudy 64 17.8 48 8.9 56 56 E 9 15 30.14 1021 10 16 0.00 0.00
1:53 pm 13:53 Cloudy 66 18.9 49 9.4 54 54 E 8 13 30.11 1020 10 16 0.00 0.00
2:53 pm 14:53 Cloudy 68 20 50 10 53 53 SE 12 19 30.09 1019 10 16 0.00 0.00
3:53 pm 15:53 Mostly Cloudy 70 21.1 50 10 49 49 E 8 13 30.07 1018 10 16 0.00 0.00
4:53 pm 16:53 Cloudy 68 20 48 8.9 49 49 E 9 15 30.07 1018 10 16 0.00 0.00
5:53 pm 17:53 Cloudy 67 19.4 46 7.8 47 47 ESE 8 13 30.07 1018 10 16 0.00 0.00
6:53 pm 18:53 Cloudy 66 18.9 46 7.8 49 49 ESE 8 13 30.07 1018 10 16 0.00 0.00
7:53 pm 19:53 Cloudy 64 17.8 46 7.8 52 52 VRB 5 7 30.08 1019 10 16 0.00 0.00
8:53 pm 20:53 Cloudy 63 17.2 46 7.8 54 54 ESE 3 6 30.09 1019 10 16 0.00 0.00
9:53 pm 21:53 Cloudy 60 15.6 46 7.8 60 60 Calm 30.11 1020 10 16 0.00 0.00
10:53 pm 22:53 Cloudy 61 16.1 44 6.7 54 54 ESE 6 9 30.09 1019 10 16 0.00 0.00
11:53 pm 23:53 Mostly Clear 59 15 44 6.7 58 58 ESE 6 9 30.09 1019 10 16 0.00 0.00

Powered by AerisWeather